TimeCDT,TemperatureF,Dew PointF,Humidity,Sea Level PressureIn,VisibilityMPH,Wind Direction,Wind SpeedMPH,Gust SpeedMPH,PrecipitationIn,Events,Conditions,WindDirDegrees,DateUTC
12:15 AM,49.6,44.8,83,29.80,10.0,Calm,Calm,-,N/A,,Clear,0,2013-04-29 05:15:00
12:35 AM,49.1,44.4,84,29.80,10.0,Calm,Calm,-,N/A,,Clear,0,2013-04-29 05:35:00
12:55 AM,48.4,43.9,84,29.79,10.0,Calm,Calm,-,N/A,,Clear,0,2013-04-29 05:55:00
1:15 AM,47.7,44.4,89,29.79,10.0,SSE,3.5,-,N/A,,Clear,160,2013-04-29 06:15:00
1:35 AM,48.7,45.1,87,29.79,10.0,Calm,Calm,-,N/A,,Clear,0,2013-04-29 06:35:00
1:55 AM,48.4,44.6,87,29.79,10.0,Calm,Calm,-,N/A,,Scattered Clouds,0,2013-04-29 06:55:00
2:15 AM,50.2,45.5,84,29.79,10.0,Calm,Calm,-,N/A,,Mostly Cloudy,0,2013-04-29 07:15:00
2:35 AM,50.0,45.0,83,29.78,10.0,Calm,Calm,-,N/A,,Overcast,0,2013-04-29 07:35:00
2:55 AM,49.6,45.1,84,29.78,10.0,Calm,Calm,-,N/A,,Overcast,0,2013-04-29 07:55:00
3:15 AM,48.9,45.0,86,29.78,10.0,Calm,Calm,-,N/A,,Overcast,0,2013-04-29 08:15:00
3:35 AM,48.9,45.9,89,29.78,10.0,Calm,Calm,-,N/A,,Mostly Cloudy,0,2013-04-29 08:35:00
3:55 AM,48.2,45.3,90,29.79,10.0,Calm,Calm,-,N/A,,Scattered Clouds,0,2013-04-29 08:55:00
4:15 AM,48.0,45.9,92,29.80,10.0,NNW,3.5,-,N/A,,Mostly Cloudy,330,2013-04-29 09:15:00
4:35 AM,49.8,46.6,89,29.81,10.0,Calm,Calm,-,N/A,,Overcast,0,2013-04-29 09:35:00
4:55 AM,50.9,46.4,85,29.81,10.0,Calm,Calm,-,N/A,,Overcast,0,2013-04-29 09:55:00
5:15 AM,49.5,46.6,90,29.80,10.0,Calm,Calm,-,N/A,,Overcast,0,2013-04-29 10:15:00
5:35 AM,48.7,47.3,95,29.81,10.0,Calm,Calm,-,N/A,,Overcast,0,2013-04-29 10:35:00
5:55 AM,49.1,47.5,94,29.81,10.0,Calm,Calm,-,N/A,,Overcast,0,2013-04-29 10:55:00
6:15 AM,48.7,47.8,97,29.82,5.0,Calm,Calm,-,N/A,,Overcast,0,2013-04-29 11:15:00
6:35 AM,48.9,48.2,97,29.81,3.0,Calm,Calm,-,0.01,,Overcast,0,2013-04-29 11:35:00
6:55 AM,49.3,48.7,98,29.81,4.0,SE,3.5,-,0.01,,Overcast,130,2013-04-29 11:55:00
7:15 AM,49.6,48.7,97,29.81,5.0,SE,3.5,-,0.01,,Overcast,140,2013-04-29 12:15:00
7:35 AM,49.1,48.0,96,29.79,5.0,Calm,Calm,-,0.01,,Overcast,0,2013-04-29 12:35:00
7:55 AM,49.5,48.2,95,29.81,5.0,Calm,Calm,-,0.01,,Overcast,0,2013-04-29 12:55:00
8:15 AM,50.5,49.1,95,29.82,5.0,Calm,Calm,-,N/A,,Overcast,0,2013-04-29 13:15:00
8:35 AM,51.1,49.3,94,29.82,5.0,Calm,Calm,-,N/A,,Overcast,0,2013-04-29 13:35:00
8:55 AM,51.8,50.2,94,29.82,5.0,Calm,Calm,-,N/A,,Overcast,0,2013-04-29 13:55:00
9:15 AM,52.7,50.9,94,29.82,5.0,SSE,3.5,-,N/A,,Overcast,160,2013-04-29 14:15:00
9:35 AM,53.6,50.9,91,29.81,5.0,SSE,3.5,-,N/A,,Overcast,160,2013-04-29 14:35:00
9:55 AM,53.8,51.1,91,29.80,5.0,ESE,4.6,-,N/A,,Overcast,110,2013-04-29 14:55:00
10:15 AM,53.1,51.3,94,29.82,4.0,South,4.6,-,N/A,,Overcast,170,2013-04-29 15:15:00
10:35 AM,52.7,51.3,95,29.82,2.5,South,4.6,-,0.01,,Overcast,170,2013-04-29 15:35:00
10:55 AM,52.0,51.1,97,29.82,2.5,SSE,4.6,-,0.02,,Overcast,160,2013-04-29 15:55:00
11:15 AM,51.8,51.1,97,29.82,2.0,SSE,3.5,-,0.02,,Overcast,160,2013-04-29 16:15:00
11:35 AM,52.3,51.6,97,29.81,2.0,Calm,Calm,-,0.03,,Overcast,0,2013-04-29 16:35:00
11:55 AM,53.2,52.7,98,29.81,2.0,SSE,5.8,-,0.03,,Overcast,150,2013-04-29 16:55:00
12:15 PM,54.0,52.9,96,29.82,3.0,Calm,Calm,-,N/A,,Overcast,0,2013-04-29 17:15:00
12:35 PM,54.7,53.4,96,29.82,4.0,Calm,Calm,-,N/A,,Overcast,0,2013-04-29 17:35:00
12:55 PM,55.9,54.0,93,29.81,4.0,Calm,Calm,-,N/A,,Overcast,0,2013-04-29 17:55:00
1:15 PM,56.7,54.3,92,29.81,5.0,SSE,4.6,-,N/A,,Overcast,160,2013-04-29 18:15:00
1:35 PM,57.7,54.5,89,29.81,7.0,SSE,5.8,-,N/A,,Overcast,150,2013-04-29 18:35:00
1:55 PM,61.7,55.2,79,29.81,10.0,SSE,10.4,-,N/A,,Mostly Cloudy,160,2013-04-29 18:55:00
2:15 PM,61.0,54.5,79,29.79,10.0,SSE,10.4,-,N/A,,Mostly Cloudy,150,2013-04-29 19:15:00
2:35 PM,61.0,54.3,79,29.79,10.0,South,10.4,-,N/A,,Overcast,170,2013-04-29 19:35:00
2:55 PM,62.1,54.5,76,29.78,10.0,SSE,8.1,-,N/A,,Mostly Cloudy,150,2013-04-29 19:55:00
3:15 PM,61.0,54.3,79,29.79,10.0,SSE,10.4,-,N/A,,Mostly Cloudy,150,2013-04-29 20:15:00
3:35 PM,60.3,54.5,81,29.78,10.0,SE,6.9,-,N/A,,Overcast,140,2013-04-29 20:35:00
3:55 PM,61.0,54.5,79,29.78,10.0,SE,9.2,-,N/A,,Overcast,140,2013-04-29 20:55:00
4:15 PM,61.7,55.0,79,29.78,10.0,South,9.2,-,N/A,,Overcast,170,2013-04-29 21:15:00
4:35 PM,61.0,53.4,76,29.77,10.0,SE,10.4,-,N/A,,Mostly Cloudy,130,2013-04-29 21:35:00
4:55 PM,60.6,52.2,74,29.77,10.0,SE,10.4,-,N/A,,Mostly Cloudy,140,2013-04-29 21:55:00
5:15 PM,59.7,51.6,75,29.77,10.0,SE,9.2,-,N/A,,Scattered Clouds,130,2013-04-29 22:15:00
5:35 PM,59.4,51.8,76,29.76,10.0,SE,5.8,-,N/A,,Mostly Cloudy,130,2013-04-29 22:35:00
5:55 PM,59.9,51.6,74,29.76,10.0,ESE,5.8,-,N/A,,Scattered Clouds,120,2013-04-29 22:55:00
6:15 PM,59.9,51.6,74,29.76,10.0,SE,5.8,-,N/A,,Scattered Clouds,130,2013-04-29 23:15:00
6:35 PM,60.3,52.2,75,29.75,10.0,SE,6.9,-,N/A,,Clear,140,2013-04-29 23:35:00
6:55 PM,59.5,52.0,76,29.76,10.0,SE,6.9,-,N/A,,Clear,130,2013-04-29 23:55:00
7:15 PM,58.1,51.8,80,29.76,10.0,ESE,3.5,-,N/A,,Clear,120,2013-04-30 00:15:00
7:35 PM,56.8,51.1,81,29.75,10.0,ESE,4.6,-,N/A,,Scattered Clouds,120,2013-04-30 00:35:00
7:55 PM,56.3,50.7,82,29.76,10.0,SE,5.8,-,N/A,,Mostly Cloudy,130,2013-04-30 00:55:00
8:15 PM,55.6,50.0,81,29.76,10.0,SE,3.5,-,N/A,,Overcast,140,2013-04-30 01:15:00
8:35 PM,55.4,50.0,82,29.76,10.0,SE,4.6,-,N/A,,Overcast,140,2013-04-30 01:35:00
8:55 PM,55.2,49.6,81,29.77,10.0,SSE,6.9,-,N/A,,Overcast,150,2013-04-30 01:55:00
9:15 PM,54.7,49.5,83,29.77,10.0,SSE,5.8,-,N/A,,Scattered Clouds,150,2013-04-30 02:15:00
9:35 PM,54.9,49.6,83,29.76,10.0,SSE,5.8,-,N/A,,Mostly Cloudy,150,2013-04-30 02:35:00
9:55 PM,54.9,49.8,83,29.76,10.0,SSE,6.9,-,N/A,,Mostly Cloudy,150,2013-04-30 02:55:00
10:35 PM,54.7,49.1,81,29.76,10.0,SE,6.9,-,N/A,,Mostly Cloudy,130,2013-04-30 03:35:00
10:55 PM,56.7,49.3,76,29.76,10.0,SE,8.1,-,N/A,,Overcast,140,2013-04-30 03:55:00
11:15 PM,56.5,48.9,76,29.75,10.0,SE,9.2,-,N/A,,Overcast,140,2013-04-30 04:15:00
11:35 PM,56.1,48.2,75,29.74,10.0,SSE,10.4,-,N/A,,Overcast,150,2013-04-30 04:35:00
11:55 PM,55.4,48.0,76,29.74,10.0,SSE,9.2,-,N/A,,Overcast,160,2013-04-30 04:55:00